Miscellaneous Local Product
Issued by NWS Hastings, NE

Home | Current Version | Previous Version | Text Only | Print | Product List | Glossary Off
Versions: 1 2 3 4 5 6 7 8 9 10 11 12 13 14 15 16 17 18 19 20 21 22 23 24 25 26 27 28 29 30 31 32 33 34 35 36 37 38 39 40 41 42 43 44 45 46 47 48 49 50

000
AXUS43 KGID 250702
MISGRI

GID CWA HOURLY WEATHER ROUNDUP
NATIONAL WEATHER SERVICE HASTINGS NE
200 AM CDT TUE APR 25 2017

NOTE: "FAIR" INDICATES FEW OR NO CLOUDS BELOW 12,000 FEET WITH NO
SIGNIFICANT WEATHER AND/OR OBSTRUCTIONS TO VISIBILITY.

...SOUTH CENTRAL NEBRASKA...

CITY           SKY/WX    TMP DP  RH WIND       PRES   REMARKS
GRAND ISLAND   CLOUDY    46  41  82 N12       29.56F
HASTINGS       MOCLDY    51  40  65 N9        29.58R
KEARNEY        CLOUDY    52  37  58 E16       29.57R
ORD            CLOUDY    48  38  68 N14G25    29.56R
YORK           CLOUDY    48  41  76 N15       29.55S
AURORA         CLOUDY    48  40  73 N13       29.55F
LEXINGTON      CLOUDY    52  41  66 N8        29.57R
HOLDREGE       MOCLDY    52  39  61 E15       29.55R
HEBRON         CLOUDY    55  44  65 NE10      29.54R

...NEBRASKA PANHANDLE...

CITY           SKY/WX    TMP DP  RH WIND       PRES   REMARKS
CHADRON        RAIN      46  44  93 N5        29.60R FOG
ALLIANCE       CLOUDY    46  43  89 E9        29.55R
SCOTTSBLUFF    RAIN      45  43  93 W5        29.61R FOG
SIDNEY         LGT RAIN  45  42  89 CALM      29.54R

...WESTERN AND NORTH CENTRAL NEBRASKA...

CITY           SKY/WX    TMP DP  RH WIND       PRES   REMARKS
VALENTINE      CLOUDY    41  34  76 NE14      29.63S
AINSWORTH      CLOUDY    42  39  91 N7        29.61F
ONEILL         CLOUDY    43  38  83 N7        29.62R
BROKEN BOW     CLOUDY    47  40  76 N23       29.57F
IMPERIAL       RAIN      48  45  89 E21       29.52F
NORTH PLATTE   LGT RAIN  48  45  89 NE10      29.59F
MCCOOK         MOCLDY    55  42  61 NE21      29.50F

...EASTERN NEBRASKA...

CITY           SKY/WX    TMP DP  RH WIND       PRES   REMARKS
NORFOLK        CLOUDY    46  39  76 N13       29.56S
SO SIOUX CITY  CLEAR     47  43  86 NW9       29.54F
TEKAMAH        CLEAR     51  42  71 NW6       29.53F
ALBION         CLOUDY    49  39  69 N13G21    29.55F
OMAHA EPPLEY   PTCLDY    54  44  69 N12       29.51F
OFFUTT AFB     PTCLDY    53  44  70 CALM      29.51S
MILLARD        CLEAR     57  47  68 NW6       29.52S
LINCOLN        PTCLDY    52  42  69 N12       29.55R
NEBRASKA CITY  PTCLDY    56  41  58 S9        29.51S
BEATRICE       PTCLDY    59  51  75 SW7       29.50S
FALLS CITY     CLOUDY    55  45  68 SE5       29.52F

...NORTHERN KANSAS...

CITY           SKY/WX    TMP DP  RH WIND       PRES   REMARKS
GOODLAND       CLOUDY    53  43  68 NE14      29.48F
HILL CITY      CLOUDY    59  46  62 E13       29.46F
NORTON         CLOUDY    55  39  54 NE13G21   29.49S
PHILLIPSBURG   PTCLDY    59  45  58 NE10G17   29.49F
SMITH CENTER   CLOUDY    57  45  62 NE14      29.51S
HAYS           MOCLDY    61  52  72 SE8       29.43F
RUSSELL        CLOUDY    61  52  72 SE12G21   29.43F
CONCORDIA      CLOUDY    58  53  84 E3        29.49F
SALINA         CLOUDY    63  50  62 SE12      29.47F
TOPEKA         CLOUDY    63  48  58 S9        29.54S



USA.gov is the U.S. government's official web portal to all federal, state and local government web resources and services.